Regional Weather Roundup
Issued by NWS Charleston, SC

Current Version | Previous Version | Graphics & Text | Print | Product List | Glossary On
Versions: 1 2 3 4 5 6 7 8 9 10 11 12 13 14 15 16 17 18 19 20 21 22 23 24 25 26 27 28 29 30 31 32 33 34 35 36 37 38 39 40 41 42 43 44 45 46 47 48 49 50
675
ASUS42 KCHS 241611
RWRCHS

REGIONAL WEATHER ROUNDUP
NATIONAL WEATHER SERVICE CHARLESTON SC
1100 AM EST FRI FEB 24 2017

NOTE: "FAIR" INDICATES FEW OR NO CLOUDS BELOW 12,000 FEET WITH NO
SIGNIFICANT WEATHER AND/OR OBSTRUCTIONS TO VISIBILITY.

NOT ALL STATIONS ARE QUALITY CONTROLLED. USE DATA WITH CAUTION...
ESPECIALLY DEWPOINT OBSERVATIONS.

SCZ027-030-031-034>040-042>050-241700-
...SOUTHEAST SOUTH CAROLINA...

CITY           SKY/WX    TMP DP  RH WIND       PRES   REMARKS
N CHARLESTON   MOSUNNY   76  61  59 NE9       29.90F
WATERFRONT PRK   N/A     71  64  78 N5        29.89S
MOUNT PLEASANT FAIR      75  64  69 NE5       29.90F
JOHNS ISLAND   FAIR      73  64  73 NE9       29.90F
PINOPOLIS        N/A     61  61 100 VRB3      29.83S
MONCKS CORNER  FAIR      72  59  64 SE7       29.91F
SUMMERVILLE    FAIR      72  61  68 E6        29.92F
BEAUFORT MCAS  SUNNY     74  64  71 VRB7      29.90F
BEAUFORT ARPT  FAIR      70  63  78 NE7       29.90F
HILTON HEAD IS SUNNY     73  64  73 N7        29.91F
WALTERBORO     SUNNY     72  61  68 E7        29.91F
ALLENDALE      FAIR      72  61  68 SE7       29.90F

...SOUTHERN MIDLANDS AND PEE DEE...

CITY           SKY/WX    TMP DP  RH WIND       PRES   REMARKS
GEORGETOWN     FAIR      72  61  68 NE8       29.92F
KINGSTREE      FAIR      72  59  64 E5        29.92F
ORANGEBURG       N/A     71  60  68 E6        29.92
BARNWELL       FAIR      73  63  68 E6        29.91F
AIKEN          FAIR      70  57  64 CALM      29.96F
MANNING        FAIR      72  43  35 MISG      29.92F
COLUMBIA       MOSUNNY   72  57  59 E6        29.92F
SUMTER         SUNNY     72  58  62 E5        29.91F
FLORENCE       MOSUNNY   73  60  63 VRB3      29.93F
MYRTLE BEACH   MOSUNNY   73  61  64 NE9       29.92F
N MYRTLE BEACH MOSUNNY   73  61  65 E5        29.91F

$$

GAZ063-065-086>088-099>101-113>116-118-119-134>141-150-241700-
...SOUTHEAST GEORGIA...

CITY           SKY/WX    TMP DP  RH WIND       PRES   REMARKS
SAVANNAH ARPT  MOSUNNY   75  61  61 E10       29.90F
HUNTER AAF     SUNNY     75  67  77 E9G17     29.87F
FORT STEWART   SUNNY     74  62  64 E9        29.87F
STATESBORO     MOSUNNY   73  65  74 E3        29.90F
SYLVANIA       SUNNY    N/A N/A N/A E7        29.91F HAZE
CLAXTON        FAIR     N/A N/A N/A NE10      29.89F

...CSRA...CENTRAL AND FAR SOUTHEAST GEORGIA...

CITY           SKY/WX    TMP DP  RH WIND       PRES   REMARKS
THOMSON        SUNNY     71  62  72 CALM      29.97S
AUGUSTA-BUSH   SUNNY     74  60  61 VRB3      29.92S
AUGUSTA-DANIEL SUNNY     72  56  57 NE5       29.93F
SWAINSBORO     FAIR      72  59  64 E3        29.93R
VIDALIA        SUNNY     75  64  69 E5        29.91S
EASTMAN        FAIR      74  51  43 SE3       29.94S
HAZLEHURST     FAIR      74  66  75 CALM      29.90R
ALMA           SUNNY     73  63  70 E8        29.88F
WAYCROSS       SUNNY     77  69  74 SE10      29.88F
JESUP          FAIR      75  61  60 E9        29.89F
BAXLEY         FAIR      75  68  78 E7        29.88F
BRUNSWICK      CLOUDY    73  66  78 NE10      29.90F
SAINT SIMONS   SUNNY     73  63  70 NE10      29.89S

$$

SCZ027-028-034-036>038-045-046-048>050-GAZ119-141-241700-
...LAKE AND SUPPLEMENTAL COASTAL OBSERVATIONS...

STATION/POSITION TIME  TEMP    WIND        PRES    WAVE   SWELL
                       AIR SEA DIR/SP/G            HT/PER HT/PER/DIR
                 (UTC) (F)     (DEG/KT/KT) (MB)    (FT/S) (FT/S/D)
WINYAH BAY       NOT AVBL
LAKE MURRAY      1520   63        CALM     1013.2
ACE BASIN NERRS  1445   69      10/  3     1013.0
FORT PULASKI     1548   68 62   70/  6/  9 1012.8F
SAPELO ISLAND    1500   71      30/ 10     1012.0

$$

ANZ835-935-AMZ111-154-330-350-352-354-370-450-454-472-241700-
...C-MAN AND BUOY OBSERVATIONS...

STATION/POSITION TIME  TEMP    WIND        PRES    WAVE   SWELL
                       AIR SEA DIR/SP/G            HT/PER HT/PER/DIR
                 (UTC) (F)     (DEG/KT/KT) (MB)    (FT/S) (FT/S/D)
BUOY 41004       1550   68 70   20/ 12/ 16 1011.8R   9/10   8/120/10
BUOY 41008       1550   63 62   10/ 12/ 12 1011.8R   5/11   5/ 80/11
FOLLY BEACH CMAN 1500   64      30/  7/  8 1013.3R
CAPERS NEARSHORE 1508   62 60   40/  8/ 10 1012.6R
FRIPP NEARSHORE  1508   63 61   30/  8/ 10 1012.5R


STATION/POSITION TIME  TEMP    WIND        PRES    WAVE   SWELL
                       AIR SEA DIR/SP/G            HT/PER HT/PER/DIR
                 (UTC) (F)     (DEG/KT/KT) (MB)    (FT/S) (FT/S/D)
5E ST. MARYS GA  1530      64                N/A     5/11   3/110/11
FRYING PAN BUOY  1550   70 72   30/ 14/ 17 1012.4R   8/11   8/150/11
BUOY 41025       1550   72 74  120/ 16/ 17 1013.5F   8/ 9   7/160/ 9
CAPE LOOKOUT NC  1500   65      30/  9/ 10 1013.5R
BUOY 41002       1550   69 70   60/ 17/ 21 1007.2F  13/10  10/120/10
BUOY 41010       NOT AVBL
ST AUGUSTINE FL  1600   66 67  350/ 14/ 15 1012.1R


$$




USA.gov is the U.S. government's official web portal to all federal, state and local government web resources and services.